[[{"header":{"parameterUnit":"m.s-1","parameterCategory":2,"la1":30.2991,"la2":30.254,"lo1":-89.0895,"lo2":-89.0444,"dy":0.0017,"dx":0.0017,"nx":28,"ny":28,"refTime":"2024-04-30T03:00:00:Z","depth":"0","parameterNumber":2,"parameterNumberName":"U-component_of_CURRENTS"},"data":[0,0,0,0,0,0,0,0,0,0,0,0,0,0,0,0,0,0,0,0,0,0,0,0,0,0,0,0,0,0,0,0,0,0,0,0,0,0,0,0,0,0,0,0,0,0,0,0,0,0,0,0,0,0,0,0,0,0,0.2836,0.2838,0,0.3011,0.3014,0.3016,0.3104,0.3103,0.3103,0.3102,0.3261,0.3265,0.327,0,0,0,0,0,0,0,0,0,0,0,0,0,0.2767,0.2767,0.2836,0.2838,0.2839,0.3011,0.3014,0.3017,0.3104,0.3103,0.3102,0.3102,0.3259,0.3265,0.3271,0,0,0,0,0,0,0,0,0,0,0,0,0,0.2861,0.2767,0.2836,0.2898,0.2905,0.301,0.3014,0.3018,0.3104,0.3103,0.3102,0.3101,0.3257,0.3264,0.3271,0.3335,0,0,0.3294,0.3297,0,0,0,0,0,0,0,0,0.2856,0.2865,0.2887,0.2894,0.2901,0.3028,0.3047,0.3121,0.3104,0.3036,0.3102,0.3101,0.3177,0.3191,0.3237,0.3343,0.335,0.3294,0.3299,0.3302,0.3304,0,0,0,0,0,0,0,0.2849,0.2859,0.2913,0.2889,0.2897,0.2981,0.2993,0.3063,0.3116,0.3042,0.3047,0.3055,0.3182,0.323,0.3241,0.3352,0.3294,0.33,0.3305,0.3308,0.3569,0.3571,0,0,0,0,0,0,0.2803,0.2851,0.2907,0.2918,0.2867,0.2982,0.2995,0.2995,0.3115,0.3131,0.3056,0.3058,0.3218,0.3233,0.3247,0.337,0.3302,0.3308,0.3313,0.3566,0.3569,0.3572,0,0,0,0,0,0,0.2801,0.2806,0.29,0.2883,0.29,0.2982,0.2982,0.2998,0.3044,0.3124,0.3141,0.3082,0.3218,0.3237,0.3331,0.3374,0.3312,0.3318,0.3563,0.3567,0.3571,0.359,0,0,0,0,0,0,0.2798,0.2804,0.2803,0.2879,0.2899,0.2966,0.2983,0.3002,0.3046,0.3052,0.3153,0.3167,0.3218,0.332,0.3338,0.3383,0.3324,0.356,0.3565,0.357,0.3586,0.3594,0.36,0,0,0,0,0,0.2795,0.2797,0.2802,0.2809,0.2889,0.2967,0.2987,0.3047,0.3048,0.3082,0.3155,0.3164,0.3363,0.3328,0.3349,0.3397,0.3558,0.3564,0.3569,0.3582,0.3592,0.36,0,0,0,0,0,0,0.2777,0.2807,0.2814,0.2827,0.2888,0.2979,0.3012,0.3044,0.3131,0.3134,0.3202,0.3224,0.3323,0.3359,0.3318,0.3488,0.346,0.3471,0.3463,0.3473,0.348,0.3462,0.333,0,0,0,0,0,0.2764,0.2768,0.2822,0.2836,0.2858,0.2932,0.2971,0.3012,0.3088,0.3125,0.32,0.3281,0.3367,0.3414,0.3494,0.3587,0.3607,0.3631,0.3638,0.3644,0.3645,0.3723,0.3736,0.3591,0.3591,0.3591,0,0,0.2759,0.2778,0.2781,0.2832,0.2882,0.2946,0.2956,0.3014,0.3088,0.3128,0.3252,0.3308,0.3396,0.3509,0.3555,0.3542,0.3696,0.3652,0.3656,0.3654,0.373,0.3744,0.3756,0.3595,0.3595,0.3594,0,0,0.2765,0.2768,0.2779,0.2829,0.289,0.2952,0.296,0.3055,0.3113,0.3227,0.3277,0.3357,0.3495,0.3572,0.3625,0.3719,0.373,0.3742,0.3771,0.3847,0.3858,0.3869,0.3902,0.3915,0.3749,0.3749,0.3749,0,0.2763,0.2782,0.2803,0.2842,0.2893,0.2949,0.3007,0.3087,0.3209,0.3268,0.3267,0.3474,0.3532,0.3671,0.3702,0.3735,0.3761,0.3725,0.3853,0.3865,0.3875,0.3906,0.3921,0.375,0.375,0.375,0.375,0,0.2787,0.2813,0.2829,0.2896,0.296,0.3016,0.3114,0.3196,0.3261,0.3338,0.3476,0.3563,0.3681,0.3713,0.3738,0.3853,0.384,0.3847,0.382,0.389,0.3919,0.3934,0.3753,0.3752,0.3752,0.3751,0,0,0.2766,0.2831,0.284,0.288,0.2991,0.305,0.3174,0.3306,0.3386,0.3495,0.3605,0.3739,0.3759,0.3819,0.386,0.3916,0.4001,0.3907,0.391,0.392,0.4141,0.3988,0.3989,0.4028,0.4031,0.4034,0.4125,0,0.2788,0.2848,0.2895,0.2997,0.3045,0.3144,0.3264,0.3387,0.349,0.3612,0.3698,0.3814,0.3811,0.3859,0.392,0.399,0.4043,0.3973,0.4089,0.4091,0.3932,0.4003,0.3846,0.3902,0.4139,0.4142,0.4143,0,0.2806,0.2846,0.2923,0.3046,0.308,0.3163,0.3344,0.3457,0.3628,0.3696,0.3805,0.3875,0.3995,0.3964,0.4115,0.407,0.4105,0.4138,0.4143,0.4002,0.3967,0.3877,0.3919,0.3854,0.4166,0.4164,0.4163,0,0.278,0.2877,0.2936,0.2976,0.3124,0.3199,0.3304,0.348,0.3583,0.3744,0.3822,0.3959,0.4043,0.412,0.4195,0.4167,0.4329,0.4307,0.4204,0.4193,0.408,0.4052,0.4054,0.4405,0.4404,0.4404,0.4404,0,0.2788,0.2838,0.2921,0.2955,0.3057,0.3179,0.3311,0.3429,0.36,0.3707,0.3852,0.395,0.4087,0.42,0.4234,0.4261,0.4375,0.4213,0.4215,0.4079,0.4052,0.4004,0.3964,0.4408,0.4407,0.4406,0.4406,0,0.2755,0.2803,0.2871,0.2998,0.3037,0.3116,0.3292,0.3386,0.3558,0.37,0.3757,0.3974,0.41,0.422,0.4348,0.4304,0.4219,0.4331,0.4132,0.4105,0.3861,0.3827,0.3657,0.3547,0.4203,0.42,0.4197,0,0.274,0.2765,0.2864,0.2896,0.295,0.3066,0.3146,0.3332,0.3426,0.3696,0.3753,0.3953,0.4038,0.4178,0.4163,0.4192,0.4132,0.4041,0.3941,0.3823,0.3791,0.3647,0.3558,0.3815,0.381,0.3805,0.3801,0,0.2717,0.2745,0.2794,0.2842,0.2907,0.2984,0.3109,0.317,0.3387,0.3502,0.3657,0.3756,0.3906,0.3866,0.3915,0.3912,0.3817,0.3939,0.391,0.3545,0.3304,0.3206,0.3762,0.3761,0.3765,0.3768,0.377,0.3772,0.2691,0.2703,0.2745,0.2786,0.2841,0.2881,0.2896,0.3019,0.3116,0.3254,0.3437,0.351,0.3617,0.3641,0.3615,0.3498,0.3485,0.3405,0.3395,0.3276,0.3081,0.3499,0.3432,0.3434,0.3435,0.3437,0.3438,0,0.264,0.2649,0.2686,0.2706,0.2701,0.277,0.2843,0.2827,0.284,0.3011,0.3093,0.3177,0.3157,0.3245,0.3191,0.3028,0.2891,0.2956,0.2782,0.274,0.3219,0.3115,0.2864,0.2864,0.2864,0.2864,0.2864,0.2864,0.2613,0.2598,0.2599,0.2545,0.2551,0.2495,0.2491,0.2483,0.2558,0.2593,0.2646,0.2757,0.2939,0.2957,0.2844,0.2767,0.2578,0.239,0.2415,0.2839,0.2882,0.2924,0.282,0.2511,0.251,0.1834,0.1829,0.1825]},{"header":{"parameterUnit":"m.s-1","parameterCategory":2,"la1":30.2991,"la2":30.254,"lo1":-89.0895,"lo2":-89.0444,"dy":0.0017,"dx":0.0017,"nx":28,"ny":28,"refTime":"2024-04-30T03:00:00:Z","depth":"0","parameterNumber":3,"parameterNumberName":"V-component_of_CURRENTS"},"data":[0,0,0,0,0,0,0,0,0,0,0,0,0,0,0,0,0,0,0,0,0,0,0,0,0,0,0,0,0,0,0,0,0,0,0,0,0,0,0,0,0,0,0,0,0,0,0,0,0,0,0,0,0,0,0,0,0,0,0.0074,0.0073,0,-0.0057,-0.0059,-0.0061,-0.0142,-0.0142,-0.0142,-0.0142,-0.0303,-0.0307,-0.0312,0,0,0,0,0,0,0,0,0,0,0,0,0,0.0127,0.0126,0.0074,0.0073,0.0072,-0.0057,-0.0059,-0.0062,-0.0143,-0.0142,-0.0142,-0.0142,-0.0302,-0.0307,-0.0312,0,0,0,0,0,0,0,0,0,0,0,0,0,0.0055,0.0126,0.0074,0.002,0.0014,-0.0056,-0.0059,-0.0062,-0.0143,-0.0142,-0.0142,-0.0142,-0.03,-0.0306,-0.0313,-0.0357,0,0,-0.0333,-0.0336,0,0,0,0,0,0,0,0,0.006,0.0053,0.0029,0.0024,0.0017,-0.0078,-0.01,-0.016,-0.0143,-0.0089,-0.0142,-0.0142,-0.0227,-0.024,-0.0273,-0.0364,-0.0371,-0.0334,-0.0338,-0.034,-0.0342,0,0,0,0,0,0,0,0.0065,0.0057,0.0016,0.0028,0.0021,-0.0041,-0.005,-0.0112,-0.0162,-0.0094,-0.0099,-0.0104,-0.0231,-0.0266,-0.0277,-0.0373,-0.0333,-0.0339,-0.0343,-0.0346,-0.0547,-0.0548,0,0,0,0,0,0,0.0099,0.0063,0.002,0.0013,0.0046,-0.0041,-0.0052,-0.0053,-0.0161,-0.0176,-0.0104,-0.0107,-0.0255,-0.0269,-0.0283,-0.0353,-0.034,-0.0347,-0.035,-0.0545,-0.0547,-0.0548,0,0,0,0,0,0,0.0101,0.0097,0.0026,0.0039,0.0026,-0.004,-0.0042,-0.0055,-0.0083,-0.0167,-0.0184,-0.0115,-0.0255,-0.0274,-0.0338,-0.0359,-0.0349,-0.0355,-0.0544,-0.0546,-0.0548,-0.0486,0,0,0,0,0,0,0.0103,0.0098,0.0101,0.0042,0.0027,-0.001,-0.0042,-0.0058,-0.0083,-0.0089,-0.0183,-0.0198,-0.0257,-0.0328,-0.0345,-0.0368,-0.0361,-0.0542,-0.0545,-0.0547,-0.0486,-0.0486,-0.0485,0,0,0,0,0,0.0105,0.0111,0.0102,0.0096,0.0036,-0.001,-0.0024,-0.0076,-0.0084,-0.0099,-0.0162,-0.0195,-0.0357,-0.0334,-0.0353,-0.0379,-0.0541,-0.0544,-0.0547,-0.0487,-0.0486,-0.0485,0,0,0,0,0,0,0.0126,0.0102,0.0091,0.0087,0.0047,-0.0021,-0.0037,-0.0065,-0.0128,-0.0127,-0.0207,-0.0228,-0.0294,-0.0346,-0.0319,-0.0448,-0.0457,-0.0464,-0.0405,-0.0405,-0.0404,-0.037,-0.0366,0,0,0,0,0,0.0138,0.0141,0.01,0.0095,0.0085,0.0029,0.0004,-0.0025,-0.0081,-0.0108,-0.0175,-0.0251,-0.0326,-0.0368,-0.0437,-0.0503,-0.0519,-0.0536,-0.0536,-0.0535,-0.0522,-0.0589,-0.0593,-0.0559,-0.0559,-0.0559,0,0,0.0144,0.0133,0.0132,0.0101,0.0069,0.0048,0.0012,-0.0012,-0.004,-0.0116,-0.0176,-0.0244,-0.0341,-0.0417,-0.0453,-0.0461,-0.0544,-0.0539,-0.0537,-0.0525,-0.0593,-0.0596,-0.0598,-0.0561,-0.056,-0.056,0,0,0.0162,0.0152,0.0162,0.0138,0.0109,0.0069,0.0071,0.0012,-0.0024,-0.0083,-0.0151,-0.0222,-0.0335,-0.0413,-0.0466,-0.0505,-0.0533,-0.0536,-0.0514,-0.0579,-0.0582,-0.0584,-0.0556,-0.0557,-0.0543,-0.0543,-0.0543,0,0.0169,0.0178,0.0152,0.0152,0.0137,0.0088,0.0084,0.0034,-0.0044,-0.0073,-0.0091,-0.0261,-0.0335,-0.044,-0.0459,-0.0501,-0.0512,-0.0502,-0.0575,-0.0578,-0.0582,-0.0554,-0.0555,-0.0541,-0.0541,-0.0541,-0.0542,0,0.0191,0.0196,0.02,0.0187,0.016,0.0153,0.0097,0.0061,0.002,-0.0034,-0.0126,-0.0234,-0.033,-0.0381,-0.0433,-0.0512,-0.0497,-0.0555,-0.0564,-0.0581,-0.055,-0.0553,-0.0537,-0.0538,-0.0539,-0.0539,0,0,0.0218,0.0218,0.0221,0.0227,0.0185,0.0169,0.0127,0.0071,0.0055,-0.0042,-0.0081,-0.023,-0.0274,-0.0337,-0.0421,-0.0491,-0.0512,-0.0528,-0.0533,-0.0475,-0.0587,-0.0494,-0.0487,-0.0588,-0.059,-0.0591,-0.0535,0,0.0245,0.027,0.025,0.0254,0.0261,0.0207,0.0176,0.0118,0.006,0.0009,-0.0111,-0.0177,-0.0264,-0.0298,-0.0387,-0.0482,-0.0525,-0.0517,-0.0601,-0.0602,-0.0499,-0.0491,-0.0447,-0.0388,-0.0537,-0.0538,-0.0538,0,0.0276,0.0291,0.0317,0.0309,0.0307,0.0297,0.0255,0.022,0.0132,0.0088,-0.0006,-0.0083,-0.0192,-0.026,-0.0417,-0.0407,-0.0482,-0.0556,-0.0557,-0.0495,-0.0516,-0.0411,-0.0388,-0.0507,-0.0542,-0.0542,-0.0542,0,0.0326,0.0334,0.0363,0.0361,0.034,0.034,0.032,0.0253,0.025,0.0153,0.0164,-0.0007,-0.0037,-0.0202,-0.0321,-0.038,-0.0455,-0.056,-0.0538,-0.0528,-0.0518,-0.0506,-0.0603,-0.0661,-0.0661,-0.0662,-0.0662,0,0.0367,0.0388,0.0399,0.0418,0.0455,0.041,0.0435,0.0386,0.0355,0.039,0.0229,0.025,-0.0027,-0.0096,-0.0262,-0.0354,-0.0402,-0.0505,-0.052,-0.0488,-0.0475,-0.0601,-0.071,-0.0659,-0.066,-0.066,-0.0661,0,0.0418,0.0425,0.0465,0.0475,0.0489,0.0517,0.0547,0.0571,0.0528,0.0579,0.0571,0.0458,0.0375,0.0159,-0.006,-0.0216,-0.0412,-0.0379,-0.0264,-0.0267,-0.0399,-0.0506,-0.0587,-0.0653,-0.0376,-0.0373,-0.0371,0,0.0445,0.0478,0.053,0.0578,0.0594,0.0638,0.0687,0.0661,0.071,0.0742,0.0797,0.0738,0.0736,0.049,0.0185,-0.0051,-0.0251,-0.0169,-0.0309,-0.0367,-0.05,-0.0567,-0.0625,-0.025,-0.0247,-0.0245,-0.0243,0,0.0502,0.0529,0.057,0.0676,0.0749,0.0822,0.0898,0.0971,0.0982,0.106,0.1168,0.1179,0.0964,0.0744,0.0422,0.0217,-0.0249,-0.0126,-0.0267,-0.0458,-0.0464,-0.0544,-0.0262,-0.0222,-0.0224,-0.0226,-0.0227,-0.0228,0.0555,0.0604,0.068,0.0777,0.0872,0.1002,0.1085,0.1197,0.1334,0.1469,0.1469,0.1538,0.1208,0.0765,0.0494,0.002,-0.0069,-0.0173,-0.03,-0.0361,-0.043,-0.0031,0.003,0.003,0.0029,0.0029,0.0028,0,0.062,0.0682,0.0777,0.0903,0.1024,0.1055,0.1224,0.1329,0.1533,0.1693,0.18,0.1731,0.1328,0.0863,0.0224,-0.011,-0.0292,-0.0308,-0.0453,-0.0515,-0.0222,-0.0222,-0.0116,-0.0116,-0.0115,-0.0115,-0.0115,-0.0115,0.066,0.0762,0.0811,0.1014,0.1108,0.1274,0.138,0.1561,0.1708,0.1939,0.2028,0.2058,0.1742,0.061,-0.0163,-0.0372,-0.0634,-0.0643,-0.0801,-0.0662,-0.0661,-0.0661,-0.0686,-0.0678,-0.0679,-0.1037,-0.1041,-0.1044]}],[{"header":{"parameterUnit":"m.s-1","parameterCategory":2,"la1":30.2991,"la2":30.254,"lo1":-89.0895,"lo2":-89.0444,"dy":0.0017,"dx":0.0017,"nx":28,"ny":28,"refTime":"2024-04-30T03:00:00:Z","depth":"2","parameterNumber":2,"parameterNumberName":"U-component_of_CURRENTS"},"data":[0,0,0,0,0,0,0,0,0,0,0,0,0,0,0,0,0,0,0,0,0,0,0,0,0,0,0,0,0,0,0,0,0,0,0,0,0,0,0,0,0,0,0,0,0,0,0,0,0,0,0,0,0,0,0,0,0,0,0.2505,0.2505,0,0.2509,0.2508,0.2508,0.2503,0.2503,0.2503,0.2503,0.2539,0.254,0.2541,0,0,0,0,0,0,0,0,0,0,0,0,0,0.2497,0.2497,0.2505,0.2505,0.2505,0.2509,0.2508,0.2508,0.2503,0.2503,0.2503,0.2503,0.2539,0.254,0.2541,0,0,0,0,0,0,0,0,0,0,0,0,0,0.2498,0.2497,0.2505,0.2505,0.2505,0.2509,0.2508,0.2508,0.2503,0.2503,0.2503,0.2503,0.2539,0.254,0.2541,0.2548,0,0,0.2546,0.2546,0,0,0,0,0,0,0,0,0.2498,0.2498,0.2505,0.2505,0.2505,0.2508,0.2519,0.2524,0.2503,0.2501,0.2503,0.2503,0.2534,0.2535,0.2532,0.255,0.2551,0.2546,0.2547,0.2547,0.2548,0,0,0,0,0,0,0,0.2498,0.2498,0.2503,0.2505,0.2505,0.2507,0.2506,0.252,0.2515,0.2501,0.2501,0.2506,0.2534,0.253,0.2533,0.2552,0.2546,0.2547,0.2548,0.2548,0.268,0.2683,0,0,0,0,0,0,0.2502,0.2497,0.2503,0.2504,0.2505,0.2507,0.2507,0.2505,0.2514,0.2516,0.2506,0.2506,0.2528,0.2531,0.2534,0.261,0.2547,0.2548,0.2549,0.2677,0.2681,0.2683,0,0,0,0,0,0,0.2502,0.2502,0.2503,0.2503,0.2504,0.2507,0.2505,0.2505,0.2512,0.2518,0.252,0.2515,0.2528,0.2532,0.2564,0.2609,0.2549,0.255,0.2674,0.2678,0.2682,0.272,0,0,0,0,0,0,0.2501,0.2502,0.2505,0.2503,0.2504,0.2516,0.2505,0.2505,0.2516,0.2516,0.2527,0.253,0.2528,0.2562,0.2565,0.261,0.2551,0.2671,0.2676,0.2681,0.2715,0.2724,0.2732,0,0,0,0,0,0.2501,0.2505,0.2504,0.2506,0.2506,0.2517,0.2518,0.2518,0.2516,0.2524,0.2537,0.253,0.2597,0.2564,0.2568,0.2614,0.2668,0.2675,0.268,0.2711,0.2723,0.2732,0,0,0,0,0,0,0.2503,0.2506,0.2504,0.2509,0.2518,0.2517,0.2526,0.2526,0.254,0.2546,0.2546,0.255,0.2605,0.2606,0.2569,0.2673,0.2639,0.2646,0.2662,0.2673,0.2681,0.269,0.2553,0,0,0,0,0,0.2505,0.2509,0.2514,0.2519,0.2525,0.2527,0.2533,0.2537,0.2548,0.2554,0.2565,0.2592,0.2631,0.2645,0.2676,0.2714,0.2712,0.2755,0.2764,0.2771,0.2785,0.2807,0.2818,0.2703,0.2703,0.2703,0,0,0.2507,0.2511,0.2512,0.2521,0.2526,0.254,0.2531,0.2548,0.2565,0.2558,0.2591,0.2622,0.2651,0.2704,0.273,0.2708,0.2805,0.2779,0.2784,0.2794,0.2815,0.2825,0.2835,0.2707,0.2707,0.2706,0,0,0.2515,0.2517,0.2524,0.2536,0.2554,0.2558,0.2567,0.258,0.2593,0.2624,0.2644,0.2692,0.2731,0.2767,0.2789,0.2863,0.2855,0.2893,0.2934,0.2956,0.2964,0.2972,0.2981,0.299,0.2891,0.2891,0.2891,0,0.2519,0.2524,0.253,0.2546,0.2559,0.2569,0.2586,0.2601,0.2627,0.2657,0.2643,0.2746,0.276,0.2844,0.2879,0.2881,0.2892,0.2882,0.2964,0.2971,0.2978,0.2986,0.2994,0.2893,0.2893,0.2893,0.2893,0,0.2531,0.2542,0.2551,0.2571,0.2588,0.2606,0.2631,0.2661,0.2678,0.2704,0.2788,0.2813,0.2869,0.2902,0.2911,0.2998,0.2989,0.2971,0.2926,0.2991,0.2996,0.3004,0.2897,0.2896,0.2895,0.2895,0,0,0.2521,0.2551,0.2555,0.2568,0.2604,0.2617,0.2665,0.2713,0.2752,0.2797,0.285,0.2935,0.2958,0.2987,0.3015,0.3051,0.3105,0.3043,0.3043,0.3034,0.3157,0.3109,0.3112,0.3103,0.3104,0.3106,0.3138,0,0.2527,0.2553,0.2572,0.2603,0.2619,0.2655,0.2695,0.275,0.2792,0.2848,0.2911,0.2979,0.2985,0.3025,0.3059,0.3109,0.3131,0.3098,0.3113,0.3113,0.3046,0.3121,0.2867,0.2872,0.3145,0.3147,0.3148,0,0.2528,0.2548,0.2575,0.262,0.2631,0.2658,0.273,0.2771,0.2865,0.2907,0.2986,0.3026,0.3118,0.309,0.3179,0.3163,0.3165,0.3187,0.3187,0.3136,0.308,0.2854,0.2876,0.3161,0.316,0.3159,0.3158,0,0.2506,0.2548,0.2567,0.2582,0.2638,0.267,0.2711,0.2799,0.2847,0.2959,0.3009,0.3098,0.3153,0.3184,0.323,0.321,0.331,0.3264,0.3218,0.3214,0.2997,0.2971,0.3303,0.3303,0.3303,0.3303,0.3303,0,0.2496,0.2513,0.256,0.257,0.2608,0.2662,0.272,0.2784,0.2878,0.2947,0.3037,0.3099,0.3186,0.3245,0.3253,0.3276,0.3314,0.3248,0.3229,0.3005,0.2981,0.323,0.3221,0.3304,0.3304,0.3304,0.3304,0,0.2462,0.249,0.2515,0.2574,0.2594,0.2627,0.2713,0.2758,0.2867,0.2954,0.2999,0.3128,0.3216,0.3279,0.3346,0.3308,0.333,0.3317,0.3053,0.3004,0.3206,0.3199,0.3256,0.3255,0.3254,0.3253,0.3253,0,0.2442,0.2451,0.2505,0.2519,0.2544,0.2599,0.2635,0.2742,0.2794,0.2961,0.2994,0.313,0.3188,0.3279,0.3261,0.3264,0.3325,0.3022,0.2933,0.323,0.3207,0.3201,0.3196,0.2653,0.2648,0.2643,0.264,0,0.2406,0.2427,0.2447,0.2475,0.2505,0.2538,0.2602,0.2635,0.2767,0.2839,0.2932,0.2999,0.3106,0.3011,0.3053,0.3013,0.3004,0.293,0.3309,0.2719,0.2668,0.2643,0.2656,0.2599,0.2603,0.2606,0.2608,0.261,0.2377,0.2377,0.2401,0.2416,0.2446,0.2456,0.2446,0.2519,0.2569,0.2643,0.2775,0.2785,0.2826,0.2759,0.2673,0.261,0.2812,0.2667,0.2678,0.2694,0.2633,0.2585,0.2488,0.2491,0.2494,0.2497,0.2499,0,0.2319,0.2322,0.2337,0.2335,0.2317,0.2369,0.2395,0.2359,0.2356,0.246,0.2506,0.2325,0.2277,0.2315,0.2156,0.2156,0.21,0.2061,0.1957,0.2002,0.204,0.1941,0.1614,0.1611,0.1608,0.1605,0,0,0.2289,0.2262,0.2256,0.2192,0.2193,0.2125,0.2109,0.2083,0.2107,0.2074,0.2056,0.2216,0.2278,0.1928,0.1876,0.1717,0.1842,0.1648,0.2366,0.2291,0.2325,0.2408,0.231,0,0,0,0,0]},{"header":{"parameterUnit":"m.s-1","parameterCategory":2,"la1":30.2991,"la2":30.254,"lo1":-89.0895,"lo2":-89.0444,"dy":0.0017,"dx":0.0017,"nx":28,"ny":28,"refTime":"2024-04-30T03:00:00:Z","depth":"2","parameterNumber":3,"parameterNumberName":"V-component_of_CURRENTS"},"data":[0,0,0,0,0,0,0,0,0,0,0,0,0,0,0,0,0,0,0,0,0,0,0,0,0,0,0,0,0,0,0,0,0,0,0,0,0,0,0,0,0,0,0,0,0,0,0,0,0,0,0,0,0,0,0,0,0,0,0.0167,0.0167,0,0.0104,0.0103,0.0103,0.0058,0.0057,0.0057,0.0057,-0.0038,-0.004,-0.0042,0,0,0,0,0,0,0,0,0,0,0,0,0,0.0206,0.0206,0.0167,0.0167,0.0166,0.0104,0.0103,0.0102,0.0058,0.0057,0.0057,0.0057,-0.0037,-0.004,-0.0042,0,0,0,0,0,0,0,0,0,0,0,0,0,0.017,0.0206,0.0168,0.0137,0.0133,0.0104,0.0103,0.0102,0.0058,0.0057,0.0057,0.0056,-0.0036,-0.0039,-0.0043,-0.0055,0,0,-0.0053,-0.0054,0,0,0,0,0,0,0,0,0.0172,0.0169,0.0142,0.0139,0.0135,0.0089,0.0082,0.0048,0.0058,0.0086,0.0057,0.0056,0.0003,-0.0004,-0.0016,-0.0059,-0.0063,-0.0053,-0.0055,-0.0057,-0.0058,0,0,0,0,0,0,0,0.0175,0.0171,0.0142,0.0141,0.0137,0.0111,0.0106,0.0075,0.0046,0.0083,0.008,0.0074,0.0,-0.0012,-0.0018,-0.0064,-0.0053,-0.0056,-0.0058,-0.006,-0.0119,-0.0119,0,0,0,0,0,0,0.0187,0.0174,0.0144,0.014,0.0154,0.0111,0.0105,0.0104,0.0047,0.0039,0.0075,0.0072,-0.0006,-0.0014,-0.0022,-0.0021,-0.0057,-0.006,-0.0062,-0.012,-0.0119,-0.0119,0,0,0,0,0,0,0.0188,0.0185,0.0146,0.0155,0.0149,0.0111,0.011,0.0103,0.0094,0.0041,0.0032,0.0074,-0.0007,-0.0017,-0.0037,-0.0026,-0.0061,-0.0064,-0.012,-0.0119,-0.0119,-0.0033,0,0,0,0,0,0,0.019,0.0186,0.0189,0.0157,0.0149,0.0139,0.011,0.0102,0.0091,0.0087,0.0037,0.0027,-0.0008,-0.0031,-0.004,-0.0031,-0.0067,-0.0121,-0.012,-0.0119,-0.0036,-0.0029,-0.0023,0,0,0,0,0,0.0191,0.0199,0.019,0.0186,0.0154,0.014,0.0134,0.0105,0.0092,0.0094,0.0063,0.0029,-0.0033,-0.0033,-0.0044,-0.0036,-0.0121,-0.012,-0.0119,-0.0039,-0.003,-0.0023,0,0,0,0,0,0,0.0212,0.0194,0.0183,0.0183,0.0168,0.0133,0.013,0.0113,0.009,0.0086,0.0037,0.0026,0.0008,-0.0024,-0.0023,-0.0052,-0.0084,-0.0085,-0.0019,-0.0012,-0.0006,0.0014,-0.007,0,0,0,0,0,0.0221,0.0224,0.02,0.0202,0.0197,0.0167,0.0157,0.014,0.0115,0.0104,0.0072,0.0035,0.0003,-0.001,-0.0045,-0.0054,-0.0083,-0.0058,-0.0052,-0.0046,-0.0038,-0.0064,-0.0059,-0.0115,-0.0115,-0.0115,0,0,0.0228,0.0219,0.022,0.0207,0.0192,0.0198,0.016,0.0153,0.0162,0.0098,0.0099,0.0054,0.0004,-0.0009,-0.002,-0.0032,-0.0045,-0.0045,-0.0039,-0.0034,-0.0063,-0.0057,-0.0052,-0.0115,-0.0115,-0.0115,0,0,0.0249,0.024,0.0251,0.0246,0.0233,0.0221,0.0225,0.0199,0.0192,0.0187,0.0139,0.0112,0.0067,0.0038,0.0016,0.0038,-0.0014,0.0018,0.0071,0.0046,0.005,0.0054,0.003,0.0031,0.0026,0.0026,0.0027,0,0.0258,0.0272,0.0252,0.0264,0.027,0.0239,0.026,0.0249,0.0222,0.0222,0.02,0.0137,0.0094,0.0077,0.008,0.0055,0.0027,0.0049,0.0056,0.0059,0.0061,0.0035,0.0035,0.0031,0.003,0.003,0.0029,0,0.029,0.0303,0.0311,0.0323,0.0328,0.0339,0.0329,0.0334,0.0322,0.0304,0.0286,0.0228,0.0194,0.0169,0.013,0.0122,0.0093,0.0065,0.0041,0.0072,0.0043,0.0041,0.0037,0.0035,0.0034,0.0033,0,0,0.031,0.033,0.0335,0.0359,0.0363,0.0375,0.0398,0.0409,0.0431,0.0392,0.041,0.0344,0.0306,0.0278,0.0221,0.0193,0.0183,0.014,0.0136,0.0125,0.0124,0.0105,0.01,0.0152,0.0152,0.0153,0.0099,0,0.0344,0.0389,0.0389,0.0442,0.0468,0.0462,0.0492,0.0497,0.0491,0.05,0.0439,0.0422,0.0351,0.0333,0.0296,0.0207,0.0182,0.02,0.0087,0.0084,0.0071,0.0099,0.0124,0.0078,0.0097,0.0097,0.0096,0,0.0382,0.041,0.0466,0.0518,0.053,0.0559,0.0611,0.0632,0.0629,0.0621,0.059,0.0535,0.0485,0.0422,0.0307,0.0318,0.0234,0.0163,0.0159,0.011,0.0062,0.0047,0.0074,0.0093,0.0093,0.0094,0.0094,0,0.0423,0.047,0.0524,0.0539,0.0586,0.0619,0.0648,0.0667,0.0703,0.0694,0.071,0.0633,0.0603,0.0489,0.0339,0.0323,0.0209,0.0172,0.0077,0.0075,0.0059,0.0055,0.0101,0.0101,0.0102,0.0102,0.0102,0,0.0468,0.0511,0.055,0.0582,0.0661,0.0672,0.0753,0.0767,0.0798,0.0852,0.0774,0.0788,0.0616,0.0526,0.0382,0.0229,0.0245,0.0095,0.0064,0.009,0.0089,0.0068,0.0065,0.01,0.01,0.0101,0.0101,0,0.0507,0.0528,0.0596,0.0656,0.0684,0.0742,0.0828,0.0885,0.0899,0.0968,0.0969,0.0905,0.0791,0.0613,0.0427,0.0295,0.0142,0.0082,0.0123,0.0098,0.0014,0.0016,-0.0018,-0.0019,-0.0019,-0.002,-0.0021,0,0.0532,0.057,0.0655,0.0705,0.0737,0.0821,0.0888,0.0934,0.1,0.1044,0.1085,0.0996,0.0955,0.0678,0.0427,0.0187,0.0142,0.0043,0.0018,0.0031,0.0004,0.0007,0.001,0.003,0.003,0.0029,0.0029,0,0.0581,0.061,0.0668,0.0769,0.0849,0.0944,0.104,0.1108,0.1173,0.1227,0.1274,0.1241,0.0993,0.0752,0.0417,0.0252,0.0083,0.0033,0.0042,0.0057,0.0071,0.0046,0.0048,0.0028,0.0028,0.0028,0.0029,0.0029,0.0621,0.0669,0.0745,0.0843,0.0936,0.1054,0.1141,0.1242,0.1353,0.1438,0.1407,0.1361,0.1094,0.0668,0.0383,0.0078,0.0092,-0.0024,-0.0022,-0.002,-0.0003,0.0009,-0.0043,-0.0044,-0.0044,-0.0044,-0.0044,0,0.0669,0.0724,0.0814,0.0932,0.1035,0.108,0.1235,0.1321,0.1454,0.1519,0.1551,0.1295,0.1029,0.0711,0.0269,0.0011,-0.0009,-0.0082,-0.0047,-0.0043,-0.0041,-0.0025,-0.0072,-0.0073,-0.0073,-0.0074,0,0,0.0696,0.0783,0.0826,0.0992,0.1079,0.1222,0.1313,0.1436,0.1516,0.1576,0.1548,0.1493,0.1118,0.0792,0.0441,0.0182,0.0128,0.0129,0.0181,0.0269,0.0274,0.0023,0.0055,0,0,0,0,0]}],[{"header":{"parameterUnit":"m.s-1","parameterCategory":2,"la1":30.2991,"la2":30.254,"lo1":-89.0895,"lo2":-89.0444,"dy":0.0017,"dx":0.0017,"nx":28,"ny":28,"refTime":"2024-04-30T03:00:00:Z","depth":"4","parameterNumber":2,"parameterNumberName":"U-component_of_CURRENTS"},"data":[0,0,0,0,0,0,0,0,0,0,0,0,0,0,0,0,0,0,0,0,0,0,0,0,0,0,0,0,0,0,0,0,0,0,0,0,0,0,0,0,0,0,0,0,0,0,0,0,0,0,0,0,0,0,0,0,0,0,0.1692,0.1692,0,0.1659,0.1658,0.1658,0.1645,0.1645,0.1646,0.1646,0.1647,0.1647,0.1646,0,0,0,0,0,0,0,0,0,0,0,0,0,0.1679,0.168,0.1692,0.1692,0.1692,0.1659,0.1658,0.1657,0.1644,0.1645,0.1646,0.1647,0.1647,0.1647,0.1646,0,0,0,0,0,0,0,0,0,0,0,0,0,0.1664,0.168,0.1692,0.1686,0.1685,0.166,0.1658,0.1657,0.1644,0.1645,0.1646,0.1647,0.1648,0.1647,0.1646,0.1623,0,0,0.1644,0.1643,0,0,0,0,0,0,0,0,0.1665,0.1664,0.1687,0.1686,0.1686,0.1662,0.1655,0.1649,0.1644,0.1654,0.1646,0.1647,0.1658,0.1657,0.164,0.1623,0.1623,0.1644,0.1643,0.1643,0.1642,0,0,0,0,0,0,0,0.1666,0.1665,0.1673,0.1687,0.1686,0.1663,0.1662,0.1653,0.1648,0.1653,0.1654,0.1659,0.1658,0.1641,0.164,0.1623,0.1644,0.1643,0.1642,0.1642,0.1681,0.1682,0,0,0,0,0,0,0.1684,0.1667,0.1675,0.1673,0.1684,0.1664,0.1662,0.1664,0.1647,0.1647,0.1658,0.1658,0.1642,0.1641,0.164,0.1699,0.1643,0.1642,0.1641,0.1679,0.1681,0.1683,0,0,0,0,0,0,0.1684,0.1685,0.1676,0.1674,0.1672,0.1664,0.1666,0.1663,0.1683,0.1651,0.1651,0.1686,0.1642,0.1641,0.1655,0.1696,0.1642,0.1641,0.1678,0.168,0.1682,0.1762,0,0,0,0,0,0,0.1684,0.1685,0.1707,0.1675,0.1673,0.1684,0.1665,0.1662,0.1685,0.1686,0.1675,0.1673,0.1643,0.1656,0.1654,0.1694,0.164,0.1676,0.1679,0.1681,0.1757,0.1766,0.1774,0,0,0,0,0,0.1683,0.1701,0.1708,0.171,0.1698,0.1685,0.1682,0.1674,0.1687,0.1696,0.1689,0.1676,0.1673,0.1656,0.1653,0.1694,0.1674,0.1678,0.1681,0.1753,0.1765,0.1774,0,0,0,0,0,0,0.1703,0.1701,0.1708,0.1725,0.1721,0.1686,0.1702,0.17,0.1699,0.1715,0.1684,0.1681,0.171,0.1691,0.1674,0.1715,0.1676,0.1679,0.1732,0.1743,0.1751,0.1751,0.164,0,0,0,0,0,0.1721,0.1739,0.1727,0.1746,0.1751,0.1737,0.174,0.1736,0.1726,0.1729,0.172,0.1717,0.1714,0.1722,0.1711,0.1731,0.1734,0.1759,0.1768,0.1775,0.1774,0.1823,0.1836,0.1694,0.1694,0.1694,0,0,0.1735,0.1739,0.175,0.1753,0.1753,0.1752,0.174,0.1757,0.1761,0.173,0.1749,0.1747,0.1726,0.1743,0.1757,0.1739,0.182,0.1779,0.1786,0.1781,0.1828,0.1842,0.1854,0.1696,0.1696,0.1696,0,0,0.1755,0.1779,0.1795,0.1796,0.181,0.1795,0.1813,0.1803,0.181,0.1821,0.1806,0.1827,0.1822,0.1812,0.1806,0.1857,0.1862,0.1874,0.192,0.1968,0.198,0.1991,0.2024,0.2036,0.1881,0.1881,0.1881,0,0.1777,0.1789,0.1798,0.1809,0.1815,0.1821,0.183,0.183,0.1828,0.1841,0.1843,0.186,0.1847,0.1868,0.1886,0.1877,0.1907,0.1882,0.198,0.1991,0.2,0.2031,0.2044,0.1886,0.1885,0.1885,0.1884,0,0.1788,0.1813,0.1826,0.184,0.1848,0.1861,0.1862,0.1885,0.1904,0.1901,0.1945,0.1933,0.1947,0.1956,0.1933,0.2001,0.2001,0.1985,0.1955,0.202,0.2048,0.206,0.1892,0.189,0.1889,0.1888,0,0,0.1787,0.1826,0.1834,0.1848,0.1868,0.1868,0.1898,0.1912,0.1944,0.1965,0.2006,0.2012,0.2036,0.2031,0.203,0.2067,0.2159,0.2067,0.2068,0.2101,0.2277,0.2132,0.2131,0.2179,0.2182,0.2184,0.2273,0,0.1793,0.1821,0.1838,0.1863,0.1873,0.1897,0.1917,0.1941,0.1972,0.2014,0.2037,0.2075,0.2057,0.2091,0.2128,0.2149,0.2195,0.2136,0.2207,0.2208,0.2073,0.2141,0.2191,0.2282,0.2284,0.2286,0.2288,0,0.1782,0.1806,0.1837,0.1876,0.1885,0.1908,0.1957,0.1978,0.2038,0.2071,0.2128,0.215,0.2209,0.2191,0.2274,0.225,0.2275,0.2286,0.229,0.2131,0.2085,0.2201,0.231,0.2308,0.2307,0.2305,0.2304,0,0.1749,0.1798,0.1827,0.1839,0.1885,0.192,0.1951,0.2007,0.2039,0.2129,0.2177,0.2241,0.2296,0.234,0.2367,0.2346,0.2456,0.2421,0.2313,0.2303,0.2371,0.2359,0.249,0.249,0.249,0.2489,0.2489,0,0.1717,0.1744,0.1827,0.1838,0.1881,0.1923,0.1981,0.2024,0.2104,0.2146,0.222,0.2267,0.2345,0.2405,0.2414,0.2401,0.2501,0.2328,0.2319,0.2403,0.2393,0.2381,0.2367,0.2493,0.2492,0.2491,0.2491,0,0.166,0.1715,0.1755,0.1835,0.1865,0.19,0.1991,0.2025,0.2121,0.2187,0.2226,0.2325,0.2395,0.2449,0.2523,0.2448,0.2453,0.2427,0.2526,0.252,0.2256,0.2246,0.2302,0.2298,0.2294,0.2291,0.2288,0,0.1625,0.1645,0.1748,0.1778,0.1822,0.189,0.1927,0.2023,0.206,0.2196,0.2216,0.2333,0.238,0.2364,0.2435,0.2447,0.2416,0.2401,0.2304,0.2253,0.224,0.2235,0.2229,0.2283,0.2282,0.2281,0.228,0,0.1557,0.1618,0.1654,0.1723,0.1779,0.1819,0.1891,0.1905,0.2009,0.2124,0.2144,0.2167,0.2242,0.2273,0.2307,0.2308,0.2392,0.2361,0.2368,0.2277,0.223,0.2219,0.2218,0.2267,0.2269,0.227,0.2271,0,0.1517,0.1531,0.1598,0.1638,0.1708,0.1717,0.1765,0.18,0.1845,0.1986,0.1997,0.211,0.2222,0.2204,0.2236,0.2225,0.2177,0.2085,0.2104,0.2119,0.2015,0.1926,0.187,0,0,0,0,0,0.1461,0.1461,0.15,0.1531,0.1596,0.1632,0.1719,0.1769,0.1881,0.1843,0.1906,0.1958,0.1983,0.205,0.2,0.2167,0.2198,0.2099,0.2104,0.2197,0.2211,0.2103,0,0,0,0,0,0,0.1421,0.1458,0.1461,0.1433,0.1436,0.1484,0.1533,0.161,0.1593,0.1718,0.1747,0.184,0.1905,0.1992,0.1963,0.1983,0.1945,0.2177,0.2171,0.2188,0.2202,0.2213,0.2107,0,0,0,0,0]},{"header":{"parameterUnit":"m.s-1","parameterCategory":2,"la1":30.2991,"la2":30.254,"lo1":-89.0895,"lo2":-89.0444,"dy":0.0017,"dx":0.0017,"nx":28,"ny":28,"refTime":"2024-04-30T03:00:00:Z","depth":"4","parameterNumber":3,"parameterNumberName":"V-component_of_CURRENTS"},"data":[0,0,0,0,0,0,0,0,0,0,0,0,0,0,0,0,0,0,0,0,0,0,0,0,0,0,0,0,0,0,0,0,0,0,0,0,0,0,0,0,0,0,0,0,0,0,0,0,0,0,0,0,0,0,0,0,0,0,0.0186,0.0186,0,0.0157,0.0157,0.0156,0.013,0.013,0.013,0.0129,0.0085,0.0084,0.0084,0,0,0,0,0,0,0,0,0,0,0,0,0,0.021,0.021,0.0186,0.0186,0.0185,0.0157,0.0157,0.0156,0.0131,0.013,0.013,0.0129,0.0085,0.0084,0.0083,0,0,0,0,0,0,0,0,0,0,0,0,0,0.0193,0.021,0.0186,0.0169,0.0167,0.0157,0.0157,0.0156,0.0131,0.013,0.013,0.0129,0.0086,0.0085,0.0083,0.0087,0,0,0.008,0.0079,0,0,0,0,0,0,0,0,0.0194,0.0192,0.0172,0.017,0.0168,0.0146,0.0149,0.0132,0.0131,0.0145,0.0129,0.0129,0.0104,0.0101,0.0098,0.0084,0.0083,0.0079,0.0079,0.0078,0.0078,0,0,0,0,0,0,0,0.0195,0.0193,0.0175,0.0171,0.0169,0.0159,0.0156,0.0145,0.0128,0.0144,0.0142,0.0137,0.0103,0.01,0.0097,0.0082,0.0079,0.0078,0.0078,0.0077,0.0089,0.009,0,0,0,0,0,0,0.0198,0.0194,0.0176,0.0174,0.0179,0.0159,0.0155,0.0154,0.0129,0.0124,0.0138,0.0136,0.0102,0.0098,0.0095,0.0122,0.0078,0.0077,0.0076,0.0087,0.0089,0.009,0,0,0,0,0,0,0.0199,0.0197,0.0177,0.0183,0.0179,0.0159,0.0158,0.0154,0.0154,0.0124,0.0119,0.0142,0.0101,0.0097,0.0099,0.0119,0.0076,0.0075,0.0086,0.0088,0.0089,0.0161,0,0,0,0,0,0,0.02,0.0198,0.0202,0.0183,0.0179,0.018,0.0158,0.0154,0.0151,0.0149,0.0126,0.0121,0.0101,0.0101,0.0098,0.0117,0.0074,0.0085,0.0087,0.0089,0.0157,0.0164,0.0171,0,0,0,0,0,0.0201,0.0209,0.0203,0.0201,0.0185,0.0181,0.0178,0.0162,0.0152,0.0158,0.0146,0.0122,0.0111,0.0101,0.0097,0.0116,0.0084,0.0086,0.0089,0.0154,0.0163,0.0171,0,0,0,0,0,0,0.0219,0.0206,0.0199,0.0202,0.0196,0.0176,0.018,0.0169,0.0164,0.0164,0.0135,0.013,0.0137,0.0119,0.0109,0.0126,0.0093,0.0095,0.0144,0.0153,0.016,0.017,0.0073,0,0,0,0,0,0.0227,0.0232,0.0216,0.022,0.0219,0.0202,0.0199,0.019,0.018,0.0177,0.0164,0.0151,0.0143,0.0143,0.013,0.0143,0.011,0.0153,0.016,0.0166,0.0172,0.0141,0.0146,0.0098,0.0098,0.0098,0,0,0.0234,0.0229,0.0231,0.0225,0.0219,0.0231,0.02,0.0201,0.0218,0.0174,0.0195,0.0172,0.0151,0.0163,0.0165,0.0152,0.0162,0.0169,0.0174,0.0177,0.0144,0.0149,0.0153,0.0099,0.0099,0.0099,0,0,0.0255,0.0249,0.0261,0.0262,0.0258,0.0254,0.0258,0.0247,0.025,0.0264,0.0236,0.0231,0.0223,0.0214,0.0207,0.0247,0.0196,0.0241,0.0291,0.0261,0.0264,0.0267,0.023,0.0229,0.025,0.025,0.025,0,0.0264,0.0279,0.0265,0.0279,0.029,0.0269,0.0292,0.0294,0.0289,0.0299,0.0282,0.0271,0.0251,0.0263,0.0277,0.0263,0.0231,0.0261,0.0269,0.0271,0.0273,0.0234,0.0232,0.0254,0.0254,0.0253,0.0253,0,0.0294,0.031,0.0319,0.0336,0.0347,0.0362,0.0365,0.038,0.038,0.0378,0.0388,0.0359,0.0352,0.0346,0.0324,0.0331,0.0299,0.0276,0.0247,0.0282,0.0239,0.0236,0.0259,0.0258,0.0257,0.0256,0,0,0.0307,0.0334,0.034,0.0366,0.0381,0.0397,0.0431,0.0456,0.0483,0.0473,0.0498,0.0482,0.0455,0.0445,0.0412,0.039,0.0371,0.0344,0.034,0.0306,0.0295,0.0266,0.0258,0.0344,0.0344,0.0344,0.026,0,0.0337,0.0382,0.039,0.0447,0.0473,0.048,0.0519,0.0539,0.0547,0.0566,0.0537,0.0541,0.0496,0.049,0.0463,0.0392,0.0365,0.0395,0.0268,0.0264,0.0233,0.0254,0.0344,0.0257,0.0256,0.0256,0.0255,0,0.0366,0.0396,0.0453,0.0513,0.0527,0.0562,0.0623,0.0653,0.067,0.0673,0.0664,0.0628,0.0601,0.0553,0.0455,0.0472,0.0393,0.0334,0.0329,0.0275,0.0228,0.0215,0.0248,0.0248,0.0249,0.0249,0.025,0,0.039,0.0446,0.05,0.0518,0.0577,0.0616,0.0653,0.0687,0.0725,0.0735,0.0747,0.0701,0.0677,0.0581,0.0456,0.0452,0.0333,0.0311,0.021,0.0206,0.0225,0.0223,0.024,0.024,0.024,0.024,0.0241,0,0.0421,0.0466,0.0519,0.0549,0.0629,0.0655,0.0735,0.0762,0.08,0.0842,0.0799,0.08,0.068,0.0594,0.0477,0.0331,0.0345,0.0222,0.0187,0.0257,0.0259,0.0221,0.022,0.0237,0.0238,0.0239,0.0239,0,0.0438,0.047,0.0538,0.0611,0.0642,0.07,0.0793,0.0844,0.0869,0.0917,0.092,0.0871,0.0759,0.0623,0.0462,0.0359,0.0223,0.0164,0.0248,0.0218,0.0111,0.0114,0.0053,0.0052,0.005,0.0049,0.0048,0,0.045,0.0486,0.0581,0.0629,0.0668,0.0754,0.0817,0.0877,0.0926,0.0953,0.0972,0.0888,0.083,0.0587,0.044,0.0218,0.018,0.0105,0.0113,0.0121,0.0093,0.0099,0.0105,0.0046,0.0045,0.0045,0.0045,0,0.0473,0.0509,0.0565,0.0659,0.0737,0.0826,0.0912,0.0951,0.1012,0.1032,0.1005,0.0889,0.0762,0.0581,0.0405,0.0245,0.0155,0.0089,0.0091,0.0098,0.0111,0.0086,0.0093,0.004,0.0041,0.0041,0.0041,0,0.0492,0.0531,0.0603,0.0688,0.0783,0.0867,0.0917,0.097,0.1019,0.1043,0.1027,0.0898,0.083,0.0594,0.0433,0.0274,0.0231,0.0172,0.0169,0.0173,0.0229,0.0264,0.0215,0,0,0,0,0,0.0505,0.0547,0.0624,0.0718,0.081,0.0867,0.0968,0.1008,0.1059,0.1043,0.1038,0.0918,0.0689,0.0598,0.0433,0.0396,0.0197,0.0195,0.0126,0.0013,0.0019,0.0062,0,0,0,0,0,0,0.0512,0.0581,0.0618,0.0724,0.0789,0.0895,0.0961,0.0998,0.0992,0.1013,0.0898,0.0856,0.0638,0.0777,0.0421,0.0376,0.0304,0.0098,0.0094,0.001,0.0015,0.0019,0.0066,0,0,0,0,0]}]]